Location: Altmatt
(47.1333°N, 8.7000°E)
Time: 08:04:54
(UTC+00:00)

Cosmos 1633 Rocket - Pass Details

Date: 13 July 2020
Orbit: 608 x 623 km, 82.5° (Epoch: 05 August)

Event Time Altitude Azimuth Distance (km) Brightness Sun altitude
Exits shadow 23:43:35 56° 152° (SSE) 739 3.1 -21.2°
Maximum altitude 23:44:21 69° 96° (E) 665 3.1 -21.2°
Drops below altitude 10° 23:48:45 10° 14° (NNE) 2,001 6.8 -21.1°
Sets 23:51:00 0° 12° (NNE) 2,914 8.0 -21.1°
